Bei Facebook empfehlenBei Twitter postenGoogle plusPinterest

Das Wetter im Erzgebirge am 29.01.2015

Wetter und Klima am 29.01.2015 Holzhau im Erzgebirge (630m ü.NN)
Letzte gemessene Temperatur und Uhrzeit der Messung23:45:00 Uhr-1.60 °C
Temperatur (Maximum / Höchstwert) und Uhrzeit der Messung13:00:00 Uhr1.80 °C
Temperatur (Minimum / Tiefstwert) und Uhrzeit der Messung09:00:00-3.10 °C
Errechneter Absolutwert der Temperaturschwankungen zwischen Tmin und Tmax des Tages4.90 K
Errechnete Tagesmitteltemperatur-0.86771 °C
Gesamt - Niederschlag des Tages (in flüssiger Form)0.00 Liter / m²
Luftdruck (Maximum / Höchstwert) und Zeitpunkt der Messung00:00:00 Uhr993.70 hPa
Luftdruck (Minimum / Tiefstwert) und Zeitpunkt der Messung23:45:00 Uhr977.70 hPa
Errechneter Absolutwert der Luftdruckschwankungen des Tages16.00 hPa
Höchste gemessene Windgeschwindigkeit und Uhrzeit der Messung21:15:00 Uhr13.68 km/h
Errechnete Windhäufigkeit in Relation zu den Messwerten des Tages12.50000 %
Niedrigste Windkühle (Windchill) und Zeitpunkt der Messung21:15:00 Uhr-5.60 °C
Taupunkt (Maximum / Höchstwert) und Uhrzeit der Messung02:00:00 Uhr-1.00 °C
Taupunkt (Minimum / Tiefstwert) und Uhrzeit der Messung09:00:00-4.70 °C
Anzahl der automatisch eingelesenen Messwerte 96

Detaillierte Wetter- und Klima- Messwerte für den 29.01.2015 in Holzhau im Erzgebirge (630m ü.NN)
ZeitTemperaturLuftdruckRel. LuftfeuchteWindWindrichtungWindchillTaupunktNiederschlag l/m²
23:45:00-1.60 °C977.70 hPa90.00 %-3.20 °C 
23:30:00-1.50 °C978.10 hPa90.00 %-3.10 °C 
23:15:00-1.50 °C978.50 hPa89.00 %-3.30 °C 
23:00:00-1.50 °C978.50 hPa89.00 %6.48 km/hO-3.90 °C-3.30 °C 
22:45:00-1.50 °C979.20 hPa89.00 %-3.30 °C 
22:30:00-1.40 °C979.40 hPa89.00 %-3.20 °C 
22:15:00-1.40 °C980.10 hPa89.00 %-3.20 °C 
22:00:00-1.40 °C980.40 hPa89.00 %-3.20 °C 
21:45:00-1.40 °C980.70 hPa89.00 %10.80 km/hONO-5.20 °C-3.20 °C 
21:30:00-1.30 °C981.00 hPa89.00 %7.56 km/hS-4.10 °C-3.10 °C 
21:15:00-1.20 °C981.30 hPa90.00 %13.68 km/hSO-5.60 °C-2.80 °C 
21:00:00-1.30 °C981.80 hPa90.00 %5.04 km/hSO-3.10 °C-2.90 °C 
20:45:00-1.40 °C982.30 hPa90.00 %-3.00 °C 
20:30:00-1.40 °C982.80 hPa90.00 %-3.00 °C 
20:15:00-1.40 °C983.30 hPa90.00 %-3.00 °C 
20:00:00-1.40 °C983.80 hPa90.00 %-3.00 °C 
19:45:00-1.40 °C983.90 hPa90.00 %-3.00 °C 
19:30:00-1.40 °C984.10 hPa89.00 %4.68 km/hSSO-1.40 °C-3.20 °C 
19:15:00-1.40 °C984.20 hPa89.00 %7.92 km/hSSO-4.40 °C-3.20 °C 
19:00:00-1.40 °C984.30 hPa89.00 %-3.20 °C 
18:45:00-1.50 °C984.60 hPa88.00 %-3.40 °C 
18:30:00-1.60 °C984.90 hPa87.00 %-3.70 °C 
18:15:00-1.60 °C985.20 hPa87.00 %-3.70 °C 
18:00:00-1.60 °C985.50 hPa87.00 %9.72 km/hNO-5.10 °C-3.70 °C 
17:45:00-1.40 °C985.70 hPa86.00 %-3.70 °C 
17:30:00-1.30 °C986.10 hPa85.00 %-3.80 °C 
17:15:00-1.20 °C986.30 hPa85.00 %-3.70 °C 
17:00:00-1.10 °C986.60 hPa84.00 %-3.70 °C 
16:45:00-1.10 °C986.90 hPa84.00 %-3.70 °C 
16:30:00-0.70 °C987.00 hPa83.00 %-3.50 °C 
16:15:00-0.40 °C987.20 hPa83.00 %-3.20 °C 
16:00:00-0.40 °C987.50 hPa82.00 %-3.40 °C 
15:45:00-0.20 °C987.60 hPa81.00 %-3.40 °C 
15:30:000.10 °C987.80 hPa81.00 %-2.80 °C 
15:15:000.20 °C988.10 hPa80.00 %-2.80 °C 
15:00:000.50 °C988.30 hPa78.00 %-2.90 °C 
14:45:001.20 °C988.70 hPa77.00 %-2.40 °C 
14:30:001.30 °C988.90 hPa79.00 %-1.90 °C 
14:15:000.40 °C989.10 hPa78.00 %-3.00 °C 
14:00:000.80 °C989.60 hPa77.00 %-2.80 °C 
13:45:000.80 °C990.00 hPa76.00 %-2.90 °C 
13:30:000.90 °C990.40 hPa76.00 %-2.80 °C 
13:15:001.50 °C990.80 hPa74.00 %8.28 km/hSW-1.10 °C-2.60 °C 
13:00:001.80 °C991.30 hPa75.00 %-2.10 °C 
12:45:001.30 °C991.30 hPa77.00 %-2.30 °C 
12:30:000.90 °C991.40 hPa76.00 %-2.80 °C 
12:15:000.70 °C992.00 hPa76.00 %11.16 km/hWSW-2.80 °C-3.00 °C 
12:00:000.90 °C992.10 hPa77.00 %-2.70 °C 
11:45:001.40 °C992.40 hPa77.00 %13.32 km/hSW-2.40 °C-2.20 °C 
11:30:001.10 °C992.90 hPa78.00 %-2.30 °C 
11:15:001.10 °C993.00 hPa79.00 %-2.10 °C 
11:00:000.80 °C993.30 hPa81.00 %-2.10 °C 
10:45:000.60 °C993.20 hPa82.00 %-2.10 °C 
10:30:000.10 °C993.30 hPa83.00 %-2.40 °C 
10:15:00-0.50 °C993.20 hPa86.00 %-2.80 °C 
10:00:00-0.90 °C993.20 hPa88.00 %-2.80 °C 
09:45:00-1.90 °C993.30 hPa89.00 %-3.70 °C 
09:30:00-2.70 °C993.30 hPa89.00 %-4.40 °C 
09:15:00-2.90 °C993.40 hPa90.00 %-4.50 °C 
09:00:00-3.10 °C993.30 hPa90.00 %-4.70 °C 
08:45:00-3.00 °C993.40 hPa90.00 %-4.60 °C 
08:30:00-2.70 °C993.30 hPa90.00 %-4.30 °C 
08:15:00-2.40 °C993.40 hPa90.00 %-4.00 °C 
08:00:00-2.40 °C993.40 hPa90.00 %-4.00 °C 
07:45:00-2.40 °C993.40 hPa90.00 %-4.00 °C 
07:30:00-2.40 °C993.40 hPa90.00 %-4.00 °C 
07:15:00-2.40 °C993.40 hPa90.00 %-4.00 °C 
07:00:00-2.40 °C993.30 hPa89.00 %-4.10 °C 
06:45:00-2.30 °C993.40 hPa89.00 %-4.00 °C 
06:30:00-2.20 °C993.50 hPa89.00 %-4.00 °C 
06:15:00-2.20 °C993.30 hPa89.00 %-4.00 °C 
06:00:00-2.40 °C993.30 hPa90.00 %-4.00 °C 
05:45:00-2.50 °C993.50 hPa90.00 %-4.10 °C 
05:30:00-2.60 °C993.40 hPa90.00 %-4.20 °C 
05:15:00-2.60 °C993.50 hPa90.00 %-4.20 °C 
05:00:00-2.40 °C993.40 hPa90.00 %4.32 km/hSSW-2.40 °C-4.00 °C 
04:45:00-1.90 °C993.50 hPa90.00 %-3.50 °C 
04:30:00-1.50 °C993.40 hPa90.00 %-3.10 °C 
04:15:00-1.20 °C993.40 hPa90.00 %-2.80 °C 
04:00:00-1.00 °C993.30 hPa90.00 %-2.60 °C 
03:45:00-0.90 °C993.20 hPa90.00 %-2.50 °C 
03:30:00-0.80 °C993.00 hPa90.00 %-2.40 °C 
03:15:00-0.60 °C992.80 hPa90.00 %-2.20 °C 
03:00:00-0.50 °C992.80 hPa90.00 %-2.10 °C 
02:45:00-0.10 °C992.80 hPa90.00 %-1.70 °C 
02:30:000.10 °C992.90 hPa91.00 %-1.20 °C 
02:15:000.20 °C992.90 hPa91.00 %-1.10 °C 
02:00:000.30 °C992.80 hPa91.00 %-1.00 °C 
01:45:000.20 °C992.90 hPa91.00 %-1.10 °C 
01:30:000.10 °C993.10 hPa91.00 %-1.20 °C 
01:15:000.10 °C992.90 hPa90.00 %-1.30 °C 
01:00:00-0.10 °C992.90 hPa91.00 %-1.50 °C 
00:45:00-0.20 °C993.20 hPa91.00 %-1.60 °C 
00:30:00-0.10 °C993.20 hPa91.00 %-1.50 °C 
00:15:00-0.10 °C993.50 hPa91.00 %-1.50 °C 
00:00:00-0.10 °C993.70 hPa91.00 %-1.50 °C 

Permanenter Link zu dieser Seite: Wetter im Erzgebirge am 29.01.2015
Performance-Info: Die Erstellung der Seite / Statistik(en) / Tabelle(n) erforderte 5 Datenbankserver-Abfrage(n) und dauerte 121 Millisekunden. (Dieser Messwert ist von der Gesamt-Auslastung des Servers abhängig.)
Erzgebirge - Wetter | Erzgebirge - Wetter (Mobilgeräte) | Komplette Klimadatenbank